sat.trackr.live / text

‹ back to catalog

CUBEBEL 2 (EU11S)

NORAD 57175 · 2023-091K

PAYLOAD ACTIVE UNKNOWN

§ Identity

Operator
Country
BELA
Launch date
2023-06-27
Launch site
VOSTO
Launch vehicle
Mass (kg)
RCS (m²)

External: N2YO · Heavens-Above · Gunter

§ Orbital elements

Epoch: 2026-09-21T21:33:10.453824Z

Period
94.04 min
Inclination
97.4954°
Eccentricity
0.0010565
Mean motion
15.31213932 rev/d
Perigee alt
465.0 km
Apogee alt
479.4 km
Semi-major
6,850.3 km
B*
2.8984e-4
RAAN
329.0728°
Arg perigee
127.9911°
Mean anomaly
232.2286°
Rev number
17,909

§ Raw data

CUBEBEL 2 (EU11S)1 57175U 23091K   26264.89803766  .00008675  00000+0  28984-3 0  99962 57175  97.4954 329.0728 0010565 127.9911 232.2286 15.31213932179094

JSON: /api/v1/satellites/57175 · /tle

For live sub-satellite position, see the globe view (requires WebGL).

§ Visibility from observer

Set your observer location to see the next 7 days of passes ≥ 10°. The values pass through the URL so the page stays shareable.

No JS? Fill the form by hand. The geolocation button needs JavaScript.

§ Radio — SatNOGS DB

ModeDescriptionDownlinkUplink
FM Mode S - Transmitter 2.425 GHz
FSK Mode U 9k6 FSK AX.25 436.990 MHz

2 transmitters · refreshed weekly from db.satnogs.org